Moses Lake, WA

7:52 AM PDT on June 27, 2017 (GMT -0700)
Grant County International

Weather History for KMWH - October, 2011

Change the Weather History Date:

Friday, October 7, 2011

  Actual Average Record
Temperature  
Mean Temperature 59 °F 53 °F  
Max Temperature 71 °F 68 °F 84 °F (2014)
Min Temperature 46 °F 38 °F 30 °F (1997)
Degree Days  
Heating Degree Days 6 12  
Month to date heating degree days 47 75  
Since 1 July heating degree days 119 225  
Cooling Degree Days 0 0  
Month to date cooling degree days 0 0  
Year to date cooling degree days 494 614  
Growing Degree Days 10 (Base 50)    
Moisture  
Dew Point 40 °F    
Average Humidity 53    
Maximum Humidity 77    
Minimum Humidity 29    
Precipitation  
Precipitation 0.00 in 0.02 in 0.25 in (1981)
Month to date precipitation 0.28 0.11  
Year to date precipitation 4.74 5.93  
Sea Level Pressure  
Sea Level Pressure 29.98 in    
Wind  
Wind Speed 9 mph (WNW)    
Max Wind Speed 23 mph    
Max Gust Speed 29 mph    
Visibility 10 miles    
Events      
T = Trace of Precipitation, MM = Missing Value Source: NWS Daily Summary

Daily Weather History Graph

Daily Weather History Graph

Search for Another Location

Airport or City:

Trip Planner

Search our weather history database for the weather conditions in past years. The results will help you decide how hot, cold, wet, or windy it might be!

Date:

Astronomy

Oct. 07, 2011 Rise Set
Actual Time 7:04 AM PDT 6:25 PM PDT
Civil Twilight 6:33 AM PDT 6:55 PM PDT
Nautical Twilight 5:58 AM PDT 7:31 PM PDT
Astronomical Twilight 5:22 AM PDT 8:06 PM PDT
Moon 4:22 PM PDT (10/7) 2:42 AM PDT (10/7)
Length of Visible Light 12h 22m
Length of Day
11h 21m
Waxing Gibbous, 84% of the Moon is Illuminated
Oct 7
Waxing Gibbous
Oct 11
Full
Oct 19
Last Quarter
Oct 26
New
Nov 2
First Quarter

Hourly Weather History & Observations

Time (PDT) Temp. Dew Point Humidity Pressure Visibility Wind Dir Wind Speed Gust Speed Precip Events Conditions
12:52 AM 54.0 °F 42.1 °F 64% 29.86 in 10.0 mi West 3.5 mph - N/A   Overcast
1:52 AM 52.0 °F 41.0 °F 66% 29.87 in 10.0 mi WSW 3.5 mph - N/A   Overcast
2:52 AM 51.8 °F 39.2 °F 62% 29.87 in 10.0 mi SW 3.5 mph - N/A   Partly Cloudy
3:52 AM 48.9 °F 39.9 °F 71% 29.88 in 10.0 mi West 6.9 mph - N/A   Clear
4:52 AM 51.1 °F 41.0 °F 68% 29.88 in 10.0 mi WSW 3.5 mph - N/A   Clear
5:52 AM 52.0 °F 41.0 °F 66% 29.91 in 10.0 mi WSW 5.8 mph - N/A   Scattered Clouds
6:52 AM 53.1 °F 41.0 °F 64% 29.92 in 10.0 mi WSW 4.6 mph - N/A   Overcast
7:52 AM 55.0 °F 41.0 °F 59% 29.94 in 10.0 mi Variable 3.5 mph - N/A   Overcast
8:52 AM 57.0 °F 42.1 °F 57% 29.96 in 10.0 mi WSW 6.9 mph - N/A   Clear
9:52 AM 62.1 °F 39.9 °F 44% 29.96 in 10.0 mi West 18.4 mph 24.2 mph N/A   Mostly Cloudy
10:52 AM 64.0 °F 41.0 °F 43% 29.98 in 10.0 mi West 13.8 mph - N/A   Partly Cloudy
11:52 AM 66.0 °F 37.9 °F 36% 29.97 in 10.0 mi West 20.7 mph 27.6 mph N/A   Clear
12:52 PM 68.0 °F 39.0 °F 35% 29.97 in 10.0 mi West 13.8 mph 24.2 mph N/A   Overcast
1:52 PM 66.9 °F 37.0 °F 33% 29.97 in 10.0 mi NNW 15.0 mph - N/A   Mostly Cloudy
2:52 PM 70.0 °F 37.0 °F 30% 29.98 in 10.0 mi NNW 10.4 mph - N/A   Overcast
3:52 PM 71.1 °F 37.0 °F 29% 29.99 in 10.0 mi NW 10.4 mph - N/A   Overcast
4:52 PM 68.0 °F 37.0 °F 32% 30.00 in 10.0 mi NNW 11.5 mph - N/A   Overcast
5:52 PM 64.9 °F 37.9 °F 37% 30.02 in 10.0 mi NW 10.4 mph - N/A   Scattered Clouds
6:52 PM 61.0 °F 39.0 °F 44% 30.05 in 10.0 mi NNW 15.0 mph - N/A   Clear
7:52 PM 55.9 °F 39.9 °F 55% 30.08 in 10.0 mi WNW 3.5 mph - N/A   Clear
8:52 PM 55.0 °F 39.9 °F 57% 30.11 in 10.0 mi West 4.6 mph - N/A   Clear
9:52 PM 51.1 °F 39.9 °F 66% 30.12 in 10.0 mi NNW 6.9 mph - N/A   Clear
10:52 PM 50.0 °F 39.9 °F 68% 30.15 in 10.0 mi NNW 5.8 mph - N/A   Clear
11:52 PM 48.9 °F 41.0 °F 74% 30.16 in 10.0 mi SW 3.5 mph - N/A   Clear